Location: Wild Duck Observatory
(38.2456°N, 85.2898°W)
Time: 09:07:45
(UTC-05:00)

Hubble Space Telescope - Visible Passes

Search period start: 19 November 2017 00:00
Search period end: 29 November 2017 00:00
Orbit: 537 x 541 km, 28.5° (Epoch: 18 November)

Date Brightness Start Highest point End Pass type
(mag) Time Alt. Az. Time Alt. Az. Time Alt. Az.
19 Nov 2.9 05:54:50 12° SSW 05:57:16 19° S 06:00:13 10° SE visible
20 Nov 2.7 05:45:22 16° SSW 05:46:57 20° S 05:50:01 10° SE visible
21 Nov 2.6 05:35:52 20° SSW 05:36:39 21° S 05:39:46 10° SE visible
22 Nov 2.6 05:26:20 21° S 05:26:21 21° S 05:29:28 10° SE visible
23 Nov 2.8 05:16:45 20° SSE 05:16:45 20° SSE 05:19:08 10° SE visible
23 Nov 3.2 06:54:37 10° SW 06:56:36 13° SSW 06:58:35 10° SSE visible
24 Nov 3.1 05:07:10 17° SSE 05:07:10 17° SSE 05:08:45 10° SE visible
24 Nov 3.2 06:44:59 10° SW 06:46:15 11° SSW 06:47:32 10° S visible
25 Nov 3.5 04:57:36 13° SSE 04:57:36 13° SSE 04:58:19 10° SE visible
